owner,sensor,date,latitude,longitude,air_temperature,qcFlag 
COMPS,ioos:station:USF.COMPS:ARP:1,2011-04-01T00:00:00Z,28.4330,-82.6670,20.9,1111122 
COMPS,ioos:station:USF.COMPS:ARP:1,2011-04-01T00:06:00Z,28.4330,-82.6670,21.02,1111122 
COMPS,ioos:station:USF.COMPS:ARP:1,2011-04-01T00:12:00Z,28.4330,-82.6670,21.09,1111122 
COMPS,ioos:station:USF.COMPS:ARP:1,2011-04-01T00:18:00Z,28.4330,-82.6670,21.19,1111122 
COMPS,ioos:station:USF.COMPS:ARP:1,2011-04-01T00:24:00Z,28.4330,-82.6670,21.22,1111122 
COMPS,ioos:station:USF.COMPS:ARP:1,2011-04-01T00:30:00Z,28.4330,-82.6670,21.3,1111122 
COMPS,ioos:station:USF.COMPS:ARP:1,2011-04-01T00:36:00Z,28.4330,-82.6670,21.37,1111122 
COMPS,ioos:station:USF.COMPS:ARP:1,2011-04-01T00:42:00Z,28.4330,-82.6670,21.36,1111122 
COMPS,ioos:station:USF.COMPS:ARP:1,2011-04-01T00:48:00Z,28.4330,-82.6670,21.36,1111122 
COMPS,ioos:station:USF.COMPS:ARP:1,2011-04-01T00:54:00Z,28.4330,-82.6670,21.36,1111122 
COMPS,ioos:station:USF.COMPS:ARP:1,2011-04-01T03:00:00Z,28.4330,-82.6670,20.16,1111122 
COMPS,ioos:station:USF.COMPS:ARP:1,2011-04-01T03:06:00Z,28.4330,-82.6670,20.15,1111122 
COMPS,ioos:station:USF.COMPS:ARP:1,2011-04-01T03:12:00Z,28.4330,-82.6670,20.12,1111122 
COMPS,ioos:station:USF.COMPS:ARP:1,2011-04-01T03:18:00Z,28.4330,-82.6670,20.12,1111122 
COMPS,ioos:station:USF.COMPS:ARP:1,2011-04-01T03:24:00Z,28.4330,-82.6670,20.08,1111122 
COMPS,ioos:station:USF.COMPS:ARP:1,2011-04-01T03:30:00Z,28.4330,-82.6670,20.1,1111122 
COMPS,ioos:station:USF.COMPS:ARP:1,2011-04-01T03:36:00Z,28.4330,-82.6670,20.11,1111122 
COMPS,ioos:station:USF.COMPS:ARP:1,2011-04-01T03:42:00Z,28.4330,-82.6670,20.01,1111122 
COMPS,ioos:station:USF.COMPS:ARP:1,2011-04-01T03:48:00Z,28.4330,-82.6670,19.98,1111122 
COMPS,ioos:station:USF.COMPS:ARP:1,2011-04-01T03:54:00Z,28.4330,-82.6670,19.98,1111122 
COMPS,ioos:station:USF.COMPS:ARP:1,2011-04-01T05:00:00Z,28.4330,-82.6670,19.67,1111122 
COMPS,ioos:station:USF.COMPS:ARP:1,2011-04-01T05:06:00Z,28.4330,-82.6670,19.61,1111122 
COMPS,ioos:station:USF.COMPS:ARP:1,2011-04-01T05:12:00Z,28.4330,-82.6670,19.59,1111122 
COMPS,ioos:station:USF.COMPS:ARP:1,2011-04-01T05:18:00Z,28.4330,-82.6670,19.59,1111122 
COMPS,ioos:station:USF.COMPS:ARP:1,2011-04-01T05:24:00Z,28.4330,-82.6670,19.58,1111122 
COMPS,ioos:station:USF.COMPS:ARP:1,2011-04-01T05:30:00Z,28.4330,-82.6670,19.59,1111122 
COMPS,ioos:station:USF.COMPS:ARP:1,2011-04-01T05:36:00Z,28.4330,-82.6670,19.54,1111122 
COMPS,ioos:station:USF.COMPS:ARP:1,2011-04-01T05:42:00Z,28.4330,-82.6670,19.5,1111122 
COMPS,ioos:station:USF.COMPS:ARP:1,2011-04-01T05:48:00Z,28.4330,-82.6670,19.46,1111122 
COMPS,ioos:station:USF.COMPS:ARP:1,2011-04-01T05:54:00Z,28.4330,-82.6670,19.43,1111122 
COMPS,ioos:station:USF.COMPS:ARP:1,2011-04-01T08:00:00Z,28.4330,-82.6670,19.41,1111122 
COMPS,ioos:station:USF.COMPS:ARP:1,2011-04-01T08:06:00Z,28.4330,-82.6670,19.38,1111122 
COMPS,ioos:station:USF.COMPS:ARP:1,2011-04-01T08:12:00Z,28.4330,-82.6670,19.35,1111122 
COMPS,ioos:station:USF.COMPS:ARP:1,2011-04-01T08:18:00Z,28.4330,-82.6670,19.36,1111122 
COMPS,ioos:station:USF.COMPS:ARP:1,2011-04-01T08:24:00Z,28.4330,-82.6670,19.34,1111122 
COMPS,ioos:station:USF.COMPS:ARP:1,2011-04-01T08:30:00Z,28.4330,-82.6670,19.33,1111122 
COMPS,ioos:station:USF.COMPS:ARP:1,2011-04-01T08:36:00Z,28.4330,-82.6670,19.29,1111122 
COMPS,ioos:station:USF.COMPS:ARP:1,2011-04-01T08:42:00Z,28.4330,-82.6670,19.35,1111122 
COMPS,ioos:station:USF.COMPS:ARP:1,2011-04-01T08:48:00Z,28.4330,-82.6670,19.33,1111122 
COMPS,ioos:station:USF.COMPS:ARP:1,2011-04-01T08:54:00Z,28.4330,-82.6670,19.21,1111122 
COMPS,ioos:station:USF.COMPS:ARP:1,2011-04-01T11:00:00Z,28.4330,-82.6670,19.48,1111122 
COMPS,ioos:station:USF.COMPS:ARP:1,2011-04-01T11:06:00Z,28.4330,-82.6670,19.47,1111122 
COMPS,ioos:station:USF.COMPS:ARP:1,2011-04-01T11:12:00Z,28.4330,-82.6670,19.51,1111122 
COMPS,ioos:station:USF.COMPS:ARP:1,2011-04-01T11:18:00Z,28.4330,-82.6670,19.47,1111122 
COMPS,ioos:station:USF.COMPS:ARP:1,2011-04-01T11:24:00Z,28.4330,-82.6670,19.48,1111122 
COMPS,ioos:station:USF.COMPS:ARP:1,2011-04-01T11:30:00Z,28.4330,-82.6670,19.59,1111122 
COMPS,ioos:station:USF.COMPS:ARP:1,2011-04-01T11:36:00Z,28.4330,-82.6670,19.54,1111122 
COMPS,ioos:station:USF.COMPS:ARP:1,2011-04-01T11:42:00Z,28.4330,-82.6670,19.47,1111122 
COMPS,ioos:station:USF.COMPS:ARP:1,2011-04-01T11:48:00Z,28.4330,-82.6670,19.45,1111122 
COMPS,ioos:station:USF.COMPS:ARP:1,2011-04-01T11:54:00Z,28.4330,-82.6670,19.42,1111122 
COMPS,ioos:station:USF.COMPS:ARP:1,2011-04-01T12:00:00Z,28.4330,-82.6670,18.26,1111122 
COMPS,ioos:station:USF.COMPS:ARP:1,2011-04-01T12:06:00Z,28.4330,-82.6670,17.81,1111122 
COMPS,ioos:station:USF.COMPS:ARP:1,2011-04-01T12:12:00Z,28.4330,-82.6670,17.58,1111122 
COMPS,ioos:station:USF.COMPS:ARP:1,2011-04-01T12:18:00Z,28.4330,-82.6670,17.54,1111122 
COMPS,ioos:station:USF.COMPS:ARP:1,2011-04-01T12:24:00Z,28.4330,-82.6670,17.52,1111122 
COMPS,ioos:station:USF.COMPS:ARP:1,2011-04-01T12:30:00Z,28.4330,-82.6670,17.49,1111122 
COMPS,ioos:station:USF.COMPS:ARP:1,2011-04-01T12:36:00Z,28.4330,-82.6670,17.55,1111122 
COMPS,ioos:station:USF.COMPS:ARP:1,2011-04-01T12:42:00Z,28.4330,-82.6670,17.7,1111122 
COMPS,ioos:station:USF.COMPS:ARP:1,2011-04-01T12:48:00Z,28.4330,-82.6670,17.6,1111122 
COMPS,ioos:station:USF.COMPS:ARP:1,2011-04-01T12:54:00Z,28.4330,-82.6670,17.39,1111122 
COMPS,ioos:station:USF.COMPS:ARP:1,2011-04-01T15:00:00Z,28.4330,-82.6670,18.84,1111122 
COMPS,ioos:station:USF.COMPS:ARP:1,2011-04-01T15:06:00Z,28.4330,-82.6670,18.72,1111122 
COMPS,ioos:station:USF.COMPS:ARP:1,2011-04-01T15:12:00Z,28.4330,-82.6670,18.65,1111122 
COMPS,ioos:station:USF.COMPS:ARP:1,2011-04-01T15:18:00Z,28.4330,-82.6670,18.66,1111122 
COMPS,ioos:station:USF.COMPS:ARP:1,2011-04-01T15:24:00Z,28.4330,-82.6670,18.64,1111122 
COMPS,ioos:station:USF.COMPS:ARP:1,2011-04-01T15:30:00Z,28.4330,-82.6670,18.38,1111122 
COMPS,ioos:station:USF.COMPS:ARP:1,2011-04-01T15:36:00Z,28.4330,-82.6670,18.47,1111122 
COMPS,ioos:station:USF.COMPS:ARP:1,2011-04-01T15:42:00Z,28.4330,-82.6670,18.54,1111122 
COMPS,ioos:station:USF.COMPS:ARP:1,2011-04-01T15:48:00Z,28.4330,-82.6670,18.7,1111122 
COMPS,ioos:station:USF.COMPS:ARP:1,2011-04-01T15:54:00Z,28.4330,-82.6670,18.52,1111122 
COMPS,ioos:station:USF.COMPS:ARP:1,2011-04-01T16:00:00Z,28.4330,-82.6670,18.45,1111122 
COMPS,ioos:station:USF.COMPS:ARP:1,2011-04-01T16:06:00Z,28.4330,-82.6670,18.48,1111122 
COMPS,ioos:station:USF.COMPS:ARP:1,2011-04-01T16:12:00Z,28.4330,-82.6670,18.54,1111122 
COMPS,ioos:station:USF.COMPS:ARP:1,2011-04-01T16:18:00Z,28.4330,-82.6670,18.66,1111122 
COMPS,ioos:station:USF.COMPS:ARP:1,2011-04-01T16:24:00Z,28.4330,-82.6670,18.77,1111122 
COMPS,ioos:station:USF.COMPS:ARP:1,2011-04-01T16:30:00Z,28.4330,-82.6670,18.71,1111122 
COMPS,ioos:station:USF.COMPS:ARP:1,2011-04-01T16:36:00Z,28.4330,-82.6670,18.72,1111122 
COMPS,ioos:station:USF.COMPS:ARP:1,2011-04-01T16:42:00Z,28.4330,-82.6670,18.89,1111122 
COMPS,ioos:station:USF.COMPS:ARP:1,2011-04-01T16:48:00Z,28.4330,-82.6670,18.87,1111122 
COMPS,ioos:station:USF.COMPS:ARP:1,2011-04-01T16:54:00Z,28.4330,-82.6670,18.94,1111122 
COMPS,ioos:station:USF.COMPS:ARP:1,2011-04-01T21:00:00Z,28.4330,-82.6670,21.33,1111122 
COMPS,ioos:station:USF.COMPS:ARP:1,2011-04-01T21:06:00Z,28.4330,-82.6670,21.39,1111122 
COMPS,ioos:station:USF.COMPS:ARP:1,2011-04-01T21:12:00Z,28.4330,-82.6670,21.45,1111122 
COMPS,ioos:station:USF.COMPS:ARP:1,2011-04-01T21:18:00Z,28.4330,-82.6670,21.34,1111122 
COMPS,ioos:station:USF.COMPS:ARP:1,2011-04-01T21:24:00Z,28.4330,-82.6670,21.28,1111122 
COMPS,ioos:station:USF.COMPS:ARP:1,2011-04-01T21:30:00Z,28.4330,-82.6670,21.37,1111122 
COMPS,ioos:station:USF.COMPS:ARP:1,2011-04-01T21:36:00Z,28.4330,-82.6670,21.37,1111122 
COMPS,ioos:station:USF.COMPS:ARP:1,2011-04-01T21:42:00Z,28.4330,-82.6670,21.3,1111122 
COMPS,ioos:station:USF.COMPS:ARP:1,2011-04-01T21:48:00Z,28.4330,-82.6670,21.37,1111122 
COMPS,ioos:station:USF.COMPS:ARP:1,2011-04-01T21:54:00Z,28.4330,-82.6670,21.31,1111122 
COMPS,ioos:station:USF.COMPS:ARP:1,2011-04-02T00:00:00Z,28.4330,-82.6670,20.77,1111122 
COMPS,ioos:station:USF.COMPS:ARP:1,2011-04-02T00:06:00Z,28.4330,-82.6670,20.74,1111122 
COMPS,ioos:station:USF.COMPS:ARP:1,2011-04-02T00:12:00Z,28.4330,-82.6670,20.77,1111122 
COMPS,ioos:station:USF.COMPS:ARP:1,2011-04-02T00:18:00Z,28.4330,-82.6670,20.73,1111122 
COMPS,ioos:station:USF.COMPS:ARP:1,2011-04-02T00:24:00Z,28.4330,-82.6670,20.8,1111122 
COMPS,ioos:station:USF.COMPS:ARP:1,2011-04-02T00:30:00Z,28.4330,-82.6670,20.76,1111122 
COMPS,ioos:station:USF.COMPS:ARP:1,2011-04-02T00:36:00Z,28.4330,-82.6670,20.79,1111122 
COMPS,ioos:station:USF.COMPS:ARP:1,2011-04-02T00:42:00Z,28.4330,-82.6670,20.76,1111122 
COMPS,ioos:station:USF.COMPS:ARP:1,2011-04-02T00:48:00Z,28.4330,-82.6670,20.85,1111122 
COMPS,ioos:station:USF.COMPS:ARP:1,2011-04-02T00:54:00Z,28.4330,-82.6670,20.94,1111122 
COMPS,ioos:station:USF.COMPS:ARP:1,2011-04-02T03:00:00Z,28.4330,-82.6670,20.78,1111122 
COMPS,ioos:station:USF.COMPS:ARP:1,2011-04-02T03:06:00Z,28.4330,-82.6670,20.81,1111122 
COMPS,ioos:station:USF.COMPS:ARP:1,2011-04-02T03:12:00Z,28.4330,-82.6670,20.8,1111122 
COMPS,ioos:station:USF.COMPS:ARP:1,2011-04-02T03:18:00Z,28.4330,-82.6670,20.81,1111122 
COMPS,ioos:station:USF.COMPS:ARP:1,2011-04-02T03:24:00Z,28.4330,-82.6670,20.91,1111122 
COMPS,ioos:station:USF.COMPS:ARP:1,2011-04-02T03:30:00Z,28.4330,-82.6670,20.89,1111122 
COMPS,ioos:station:USF.COMPS:ARP:1,2011-04-02T03:36:00Z,28.4330,-82.6670,20.8,1111122 
COMPS,ioos:station:USF.COMPS:ARP:1,2011-04-02T03:42:00Z,28.4330,-82.6670,20.8,1111122 
COMPS,ioos:station:USF.COMPS:ARP:1,2011-04-02T03:48:00Z,28.4330,-82.6670,20.81,1111122 
COMPS,ioos:station:USF.COMPS:ARP:1,2011-04-02T03:54:00Z,28.4330,-82.6670,20.84,1111122 
COMPS,ioos:station:USF.COMPS:ARP:1,2011-04-02T06:00:00Z,28.4330,-82.6670,16.22,1111122 
COMPS,ioos:station:USF.COMPS:ARP:1,2011-04-02T06:06:00Z,28.4330,-82.6670,16.24,1111122 
COMPS,ioos:station:USF.COMPS:ARP:1,2011-04-02T06:12:00Z,28.4330,-82.6670,16.48,1111122 
COMPS,ioos:station:USF.COMPS:ARP:1,2011-04-02T06:18:00Z,28.4330,-82.6670,16.39,1111122 
COMPS,ioos:station:USF.COMPS:ARP:1,2011-04-02T06:24:00Z,28.4330,-82.6670,16.13,1111122 
COMPS,ioos:station:USF.COMPS:ARP:1,2011-04-02T06:30:00Z,28.4330,-82.6670,15.97,1111122 
COMPS,ioos:station:USF.COMPS:ARP:1,2011-04-02T06:36:00Z,28.4330,-82.6670,15.9,1111122 
COMPS,ioos:station:USF.COMPS:ARP:1,2011-04-02T06:42:00Z,28.4330,-82.6670,15.75,1111122 
COMPS,ioos:station:USF.COMPS:ARP:1,2011-04-02T06:48:00Z,28.4330,-82.6670,15.66,1111122 
COMPS,ioos:station:USF.COMPS:ARP:1,2011-04-02T06:54:00Z,28.4330,-82.6670,15.76,1111122 
COMPS,ioos:station:USF.COMPS:ARP:1,2011-04-02T09:00:00Z,28.4330,-82.6670,15.75,1111122 
COMPS,ioos:station:USF.COMPS:ARP:1,2011-04-02T09:06:00Z,28.4330,-82.6670,15.95,1111122 
COMPS,ioos:station:USF.COMPS:ARP:1,2011-04-02T09:12:00Z,28.4330,-82.6670,15.92,1111122 
COMPS,ioos:station:USF.COMPS:ARP:1,2011-04-02T09:18:00Z,28.4330,-82.6670,16.12,1111122 
COMPS,ioos:station:USF.COMPS:ARP:1,2011-04-02T09:24:00Z,28.4330,-82.6670,16.19,1111122 
COMPS,ioos:station:USF.COMPS:ARP:1,2011-04-02T09:30:00Z,28.4330,-82.6670,16.24,1111122 
COMPS,ioos:station:USF.COMPS:ARP:1,2011-04-02T09:36:00Z,28.4330,-82.6670,16.28,1111122 
COMPS,ioos:station:USF.COMPS:ARP:1,2011-04-02T09:42:00Z,28.4330,-82.6670,16.08,1111122 
COMPS,ioos:station:USF.COMPS:ARP:1,2011-04-02T09:48:00Z,28.4330,-82.6670,15.76,1111122 
COMPS,ioos:station:USF.COMPS:ARP:1,2011-04-02T09:54:00Z,28.4330,-82.6670,15.4,1111122 
COMPS,ioos:station:USF.COMPS:ARP:1,2011-04-02T12:00:00Z,28.4330,-82.6670,20.44,1111122 
COMPS,ioos:station:USF.COMPS:ARP:1,2011-04-02T12:06:00Z,28.4330,-82.6670,20.61,1111122 
COMPS,ioos:station:USF.COMPS:ARP:1,2011-04-02T12:12:00Z,28.4330,-82.6670,20.69,1111122 
COMPS,ioos:station:USF.COMPS:ARP:1,2011-04-02T12:18:00Z,28.4330,-82.6670,20.71,1111122 
COMPS,ioos:station:USF.COMPS:ARP:1,2011-04-02T12:24:00Z,28.4330,-82.6670,20.71,1111122 
COMPS,ioos:station:USF.COMPS:ARP:1,2011-04-02T12:30:00Z,28.4330,-82.6670,20.76,1111122 
COMPS,ioos:station:USF.COMPS:ARP:1,2011-04-02T12:36:00Z,28.4330,-82.6670,20.71,1111122 
COMPS,ioos:station:USF.COMPS:ARP:1,2011-04-02T12:42:00Z,28.4330,-82.6670,20.79,1111122 
COMPS,ioos:station:USF.COMPS:ARP:1,2011-04-02T12:48:00Z,28.4330,-82.6670,20.85,1111122 
COMPS,ioos:station:USF.COMPS:ARP:1,2011-04-02T12:54:00Z,28.4330,-82.6670,20.99,1111122 
COMPS,ioos:station:USF.COMPS:ARP:1,2011-04-02T17:00:00Z,28.4330,-82.6670,22.88,1111122 
COMPS,ioos:station:USF.COMPS:ARP:1,2011-04-02T17:06:00Z,28.4330,-82.6670,22.78,1111122 
COMPS,ioos:station:USF.COMPS:ARP:1,2011-04-02T17:12:00Z,28.4330,-82.6670,22.69,1111122 
COMPS,ioos:station:USF.COMPS:ARP:1,2011-04-02T17:18:00Z,28.4330,-82.6670,23.07,1111122 
COMPS,ioos:station:USF.COMPS:ARP:1,2011-04-02T17:24:00Z,28.4330,-82.6670,22.82,1111122 
COMPS,ioos:station:USF.COMPS:ARP:1,2011-04-02T17:30:00Z,28.4330,-82.6670,22.81,1111122 
COMPS,ioos:station:USF.COMPS:ARP:1,2011-04-02T17:36:00Z,28.4330,-82.6670,22.79,1111122 
COMPS,ioos:station:USF.COMPS:ARP:1,2011-04-02T17:42:00Z,28.4330,-82.6670,22.86,1111122 
COMPS,ioos:station:USF.COMPS:ARP:1,2011-04-02T17:48:00Z,28.4330,-82.6670,22.02,1111122 
COMPS,ioos:station:USF.COMPS:ARP:1,2011-04-02T17:54:00Z,28.4330,-82.6670,22.54,1111122 
COMPS,ioos:station:USF.COMPS:ARP:1,2011-04-02T20:00:00Z,28.4330,-82.6670,22.24,1111122 
COMPS,ioos:station:USF.COMPS:ARP:1,2011-04-02T20:06:00Z,28.4330,-82.6670,22.04,1111122 
COMPS,ioos:station:USF.COMPS:ARP:1,2011-04-02T20:12:00Z,28.4330,-82.6670,22.0,1111122 
COMPS,ioos:station:USF.COMPS:ARP:1,2011-04-02T20:18:00Z,28.4330,-82.6670,22.18,1111122 
COMPS,ioos:station:USF.COMPS:ARP:1,2011-04-02T20:24:00Z,28.4330,-82.6670,21.96,1111122 
COMPS,ioos:station:USF.COMPS:ARP:1,2011-04-02T20:30:00Z,28.4330,-82.6670,21.99,1111122 
COMPS,ioos:station:USF.COMPS:ARP:1,2011-04-02T20:36:00Z,28.4330,-82.6670,22.1,1111122 
COMPS,ioos:station:USF.COMPS:ARP:1,2011-04-02T20:42:00Z,28.4330,-82.6670,22.19,1111122 
COMPS,ioos:station:USF.COMPS:ARP:1,2011-04-02T20:48:00Z,28.4330,-82.6670,22.28,1111122 
COMPS,ioos:station:USF.COMPS:ARP:1,2011-04-02T20:54:00Z,28.4330,-82.6670,22.4,1111122 
COMPS,ioos:station:USF.COMPS:ARP:1,2011-04-02T23:00:00Z,28.4330,-82.6670,22.39,1111122 
COMPS,ioos:station:USF.COMPS:ARP:1,2011-04-02T23:06:00Z,28.4330,-82.6670,22.4,1111122 
COMPS,ioos:station:USF.COMPS:ARP:1,2011-04-02T23:12:00Z,28.4330,-82.6670,22.32,1111122 
COMPS,ioos:station:USF.COMPS:ARP:1,2011-04-02T23:18:00Z,28.4330,-82.6670,22.38,1111122 
COMPS,ioos:station:USF.COMPS:ARP:1,2011-04-02T23:24:00Z,28.4330,-82.6670,22.34,1111122 
COMPS,ioos:station:USF.COMPS:ARP:1,2011-04-02T23:30:00Z,28.4330,-82.6670,22.21,1111122 
COMPS,ioos:station:USF.COMPS:ARP:1,2011-04-02T23:36:00Z,28.4330,-82.6670,22.06,1111122 
COMPS,ioos:station:USF.COMPS:ARP:1,2011-04-02T23:42:00Z,28.4330,-82.6670,21.9,1111122 
COMPS,ioos:station:USF.COMPS:ARP:1,2011-04-02T23:48:00Z,28.4330,-82.6670,21.83,1111122 
COMPS,ioos:station:USF.COMPS:ARP:1,2011-04-02T23:54:00Z,28.4330,-82.6670,21.77,1111122 
COMPS,ioos:station:USF.COMPS:ARP:1,2011-04-03T02:00:00Z,28.4330,-82.6670,21.6,1111122 
COMPS,ioos:station:USF.COMPS:ARP:1,2011-04-03T02:06:00Z,28.4330,-82.6670,21.51,1111122 
COMPS,ioos:station:USF.COMPS:ARP:1,2011-04-03T02:12:00Z,28.4330,-82.6670,21.42,1111122 
COMPS,ioos:station:USF.COMPS:ARP:1,2011-04-03T02:18:00Z,28.4330,-82.6670,21.5,1111122 
COMPS,ioos:station:USF.COMPS:ARP:1,2011-04-03T02:24:00Z,28.4330,-82.6670,21.45,1111122 
COMPS,ioos:station:USF.COMPS:ARP:1,2011-04-03T02:30:00Z,28.4330,-82.6670,21.52,1111122 
COMPS,ioos:station:USF.COMPS:ARP:1,2011-04-03T02:36:00Z,28.4330,-82.6670,21.54,1111122 
COMPS,ioos:station:USF.COMPS:ARP:1,2011-04-03T02:42:00Z,28.4330,-82.6670,21.51,1111122 
COMPS,ioos:station:USF.COMPS:ARP:1,2011-04-03T02:48:00Z,28.4330,-82.6670,21.5,1111122 
COMPS,ioos:station:USF.COMPS:ARP:1,2011-04-03T02:54:00Z,28.4330,-82.6670,21.62,1111122 
COMPS,ioos:station:USF.COMPS:ARP:1,2011-04-03T05:00:00Z,28.4330,-82.6670,17.84,1111122 
COMPS,ioos:station:USF.COMPS:ARP:1,2011-04-03T05:06:00Z,28.4330,-82.6670,17.72,1111122 
COMPS,ioos:station:USF.COMPS:ARP:1,2011-04-03T05:12:00Z,28.4330,-82.6670,17.68,1111122 
COMPS,ioos:station:USF.COMPS:ARP:1,2011-04-03T05:18:00Z,28.4330,-82.6670,17.61,1111122 
COMPS,ioos:station:USF.COMPS:ARP:1,2011-04-03T05:24:00Z,28.4330,-82.6670,17.64,1111122 
COMPS,ioos:station:USF.COMPS:ARP:1,2011-04-03T05:30:00Z,28.4330,-82.6670,17.56,1111122 
COMPS,ioos:station:USF.COMPS:ARP:1,2011-04-03T05:36:00Z,28.4330,-82.6670,17.6,1111122 
COMPS,ioos:station:USF.COMPS:ARP:1,2011-04-03T05:42:00Z,28.4330,-82.6670,17.82,1111122 
COMPS,ioos:station:USF.COMPS:ARP:1,2011-04-03T05:48:00Z,28.4330,-82.6670,17.94,1111122 
COMPS,ioos:station:USF.COMPS:ARP:1,2011-04-03T05:54:00Z,28.4330,-82.6670,18.01,1111122 
COMPS,ioos:station:USF.COMPS:ARP:1,2011-04-03T08:00:00Z,28.4330,-82.6670,16.5,1111122 
COMPS,ioos:station:USF.COMPS:ARP:1,2011-04-03T08:06:00Z,28.4330,-82.6670,16.48,1111122 
COMPS,ioos:station:USF.COMPS:ARP:1,2011-04-03T08:12:00Z,28.4330,-82.6670,16.4,1111122 
COMPS,ioos:station:USF.COMPS:ARP:1,2011-04-03T08:18:00Z,28.4330,-82.6670,16.25,1111122 
COMPS,ioos:station:USF.COMPS:ARP:1,2011-04-03T08:24:00Z,28.4330,-82.6670,16.31,1111122 
COMPS,ioos:station:USF.COMPS:ARP:1,2011-04-03T08:30:00Z,28.4330,-82.6670,16.31,1111122 
COMPS,ioos:station:USF.COMPS:ARP:1,2011-04-03T08:36:00Z,28.4330,-82.6670,16.23,1111122 
COMPS,ioos:station:USF.COMPS:ARP:1,2011-04-03T08:42:00Z,28.4330,-82.6670,16.03,1111122 
COMPS,ioos:station:USF.COMPS:ARP:1,2011-04-03T08:48:00Z,28.4330,-82.6670,15.88,1111122 
COMPS,ioos:station:USF.COMPS:ARP:1,2011-04-03T08:54:00Z,28.4330,-82.6670,15.82,1111122 
COMPS,ioos:station:USF.COMPS:ARP:1,2011-04-03T11:00:00Z,28.4330,-82.6670,16.06,1111122 
COMPS,ioos:station:USF.COMPS:ARP:1,2011-04-03T11:06:00Z,28.4330,-82.6670,16.07,1111122 
COMPS,ioos:station:USF.COMPS:ARP:1,2011-04-03T11:12:00Z,28.4330,-82.6670,16.01,1111122 
COMPS,ioos:station:USF.COMPS:ARP:1,2011-04-03T11:18:00Z,28.4330,-82.6670,15.92,1111122 
COMPS,ioos:station:USF.COMPS:ARP:1,2011-04-03T11:24:00Z,28.4330,-82.6670,15.9,1111122 
COMPS,ioos:station:USF.COMPS:ARP:1,2011-04-03T11:30:00Z,28.4330,-82.6670,16.01,1111122 
COMPS,ioos:station:USF.COMPS:ARP:1,2011-04-03T11:36:00Z,28.4330,-82.6670,16.09,1111122 
COMPS,ioos:station:USF.COMPS:ARP:1,2011-04-03T11:42:00Z,28.4330,-82.6670,16.16,1111122 
COMPS,ioos:station:USF.COMPS:ARP:1,2011-04-03T11:48:00Z,28.4330,-82.6670,16.38,1111122 
COMPS,ioos:station:USF.COMPS:ARP:1,2011-04-03T11:54:00Z,28.4330,-82.6670,16.5,1111122 
COMPS,ioos:station:USF.COMPS:ARP:1,2011-04-03T14:00:00Z,28.4330,-82.6670,21.49,1111122 
COMPS,ioos:station:USF.COMPS:ARP:1,2011-04-03T14:06:00Z,28.4330,-82.6670,21.79,1111122 
COMPS,ioos:station:USF.COMPS:ARP:1,2011-04-03T14:12:00Z,28.4330,-82.6670,22.1,1111122 
COMPS,ioos:station:USF.COMPS:ARP:1,2011-04-03T14:18:00Z,28.4330,-82.6670,22.4,1111122 
COMPS,ioos:station:USF.COMPS:ARP:1,2011-04-03T14:24:00Z,28.4330,-82.6670,22.68,1111122 
COMPS,ioos:station:USF.COMPS:ARP:1,2011-04-03T14:30:00Z,28.4330,-82.6670,22.8,1111122 
COMPS,ioos:station:USF.COMPS:ARP:1,2011-04-03T14:36:00Z,28.4330,-82.6670,22.91,1111122 
COMPS,ioos:station:USF.COMPS:ARP:1,2011-04-03T14:42:00Z,28.4330,-82.6670,23.12,1111122 
COMPS,ioos:station:USF.COMPS:ARP:1,2011-04-03T14:48:00Z,28.4330,-82.6670,23.32,1111122 
COMPS,ioos:station:USF.COMPS:ARP:1,2011-04-03T14:54:00Z,28.4330,-82.6670,23.55,1111122 
COMPS,ioos:station:USF.COMPS:ARP:1,2011-04-03T17:00:00Z,28.4330,-82.6670,26.14,1111122 
COMPS,ioos:station:USF.COMPS:ARP:1,2011-04-03T17:06:00Z,28.4330,-82.6670,26.27,1111122 
COMPS,ioos:station:USF.COMPS:ARP:1,2011-04-03T17:12:00Z,28.4330,-82.6670,26.45,1111122 
COMPS,ioos:station:USF.COMPS:ARP:1,2011-04-03T17:18:00Z,28.4330,-82.6670,26.67,1111122 
COMPS,ioos:station:USF.COMPS:ARP:1,2011-04-03T17:24:00Z,28.4330,-82.6670,26.93,1111122 
COMPS,ioos:station:USF.COMPS:ARP:1,2011-04-03T17:30:00Z,28.4330,-82.6670,26.89,1111122 
COMPS,ioos:station:USF.COMPS:ARP:1,2011-04-03T17:36:00Z,28.4330,-82.6670,26.94,1111122 
COMPS,ioos:station:USF.COMPS:ARP:1,2011-04-03T17:42:00Z,28.4330,-82.6670,26.98,1111122 
COMPS,ioos:station:USF.COMPS:ARP:1,2011-04-03T17:48:00Z,28.4330,-82.6670,27.14,1111122 
COMPS,ioos:station:USF.COMPS:ARP:1,2011-04-03T17:54:00Z,28.4330,-82.6670,27.42,1111122 
COMPS,ioos:station:USF.COMPS:ARP:1,2011-04-03T20:00:00Z,28.4330,-82.6670,28.7,1111122 
COMPS,ioos:station:USF.COMPS:ARP:1,2011-04-03T20:06:00Z,28.4330,-82.6670,28.94,1111122 
COMPS,ioos:station:USF.COMPS:ARP:1,2011-04-03T20:12:00Z,28.4330,-82.6670,29.04,1111122 
COMPS,ioos:station:USF.COMPS:ARP:1,2011-04-03T20:18:00Z,28.4330,-82.6670,28.95,1111122 
COMPS,ioos:station:USF.COMPS:ARP:1,2011-04-03T20:24:00Z,28.4330,-82.6670,29.09,1111122 
COMPS,ioos:station:USF.COMPS:ARP:1,2011-04-03T20:30:00Z,28.4330,-82.6670,29.33,1111122 
COMPS,ioos:station:USF.COMPS:ARP:1,2011-04-03T20:36:00Z,28.4330,-82.6670,29.24,1111122 
COMPS,ioos:station:USF.COMPS:ARP:1,2011-04-03T20:42:00Z,28.4330,-82.6670,29.22,1111122 
COMPS,ioos:station:USF.COMPS:ARP:1,2011-04-03T20:48:00Z,28.4330,-82.6670,26.88,1111122 
COMPS,ioos:station:USF.COMPS:ARP:1,2011-04-03T20:54:00Z,28.4330,-82.6670,26.12,1111122 
COMPS,ioos:station:USF.COMPS:ARP:1,2011-04-03T23:00:00Z,28.4330,-82.6670,24.78,1111122 
COMPS,ioos:station:USF.COMPS:ARP:1,2011-04-03T23:06:00Z,28.4330,-82.6670,24.69,1111122 
COMPS,ioos:station:USF.COMPS:ARP:1,2011-04-03T23:12:00Z,28.4330,-82.6670,24.57,1111122 
COMPS,ioos:station:USF.COMPS:ARP:1,2011-04-03T23:18:00Z,28.4330,-82.6670,24.57,1111122 
COMPS,ioos:station:USF.COMPS:ARP:1,2011-04-03T23:24:00Z,28.4330,-82.6670,24.57,1111122 
COMPS,ioos:station:USF.COMPS:ARP:1,2011-04-03T23:30:00Z,28.4330,-82.6670,24.55,1111122 
COMPS,ioos:station:USF.COMPS:ARP:1,2011-04-03T23:36:00Z,28.4330,-82.6670,24.47,1111122 
COMPS,ioos:station:USF.COMPS:ARP:1,2011-04-03T23:42:00Z,28.4330,-82.6670,24.27,1111122 
COMPS,ioos:station:USF.COMPS:ARP:1,2011-04-03T23:48:00Z,28.4330,-82.6670,24.12,1111122 
COMPS,ioos:station:USF.COMPS:ARP:1,2011-04-03T23:54:00Z,28.4330,-82.6670,24.0,1111122 
COMPS,ioos:station:USF.COMPS:ARP:1,2011-04-04T02:00:00Z,28.4330,-82.6670,20.97,1111122 
COMPS,ioos:station:USF.COMPS:ARP:1,2011-04-04T02:06:00Z,28.4330,-82.6670,20.88,1111122 
COMPS,ioos:station:USF.COMPS:ARP:1,2011-04-04T02:12:00Z,28.4330,-82.6670,20.77,1111122 
COMPS,ioos:station:USF.COMPS:ARP:1,2011-04-04T02:18:00Z,28.4330,-82.6670,21.58,1111122 
COMPS,ioos:station:USF.COMPS:ARP:1,2011-04-04T02:24:00Z,28.4330,-82.6670,22.03,1111122 
COMPS,ioos:station:USF.COMPS:ARP:1,2011-04-04T02:30:00Z,28.4330,-82.6670,21.95,1111122 
COMPS,ioos:station:USF.COMPS:ARP:1,2011-04-04T02:36:00Z,28.4330,-82.6670,21.68,1111122 
COMPS,ioos:station:USF.COMPS:ARP:1,2011-04-04T02:42:00Z,28.4330,-82.6670,21.38,1111122 
COMPS,ioos:station:USF.COMPS:ARP:1,2011-04-04T02:48:00Z,28.4330,-82.6670,21.14,1111122 
COMPS,ioos:station:USF.COMPS:ARP:1,2011-04-04T02:54:00Z,28.4330,-82.6670,21.07,1111122 
COMPS,ioos:station:USF.COMPS:ARP:1,2011-04-04T05:00:00Z,28.4330,-82.6670,19.88,1111122 
COMPS,ioos:station:USF.COMPS:ARP:1,2011-04-04T05:06:00Z,28.4330,-82.6670,19.84,1111122 
COMPS,ioos:station:USF.COMPS:ARP:1,2011-04-04T05:12:00Z,28.4330,-82.6670,19.73,1111122 
COMPS,ioos:station:USF.COMPS:ARP:1,2011-04-04T05:18:00Z,28.4330,-82.6670,19.64,1111122 
COMPS,ioos:station:USF.COMPS:ARP:1,2011-04-04T05:24:00Z,28.4330,-82.6670,19.53,1111122 
COMPS,ioos:station:USF.COMPS:ARP:1,2011-04-04T05:30:00Z,28.4330,-82.6670,19.42,1111122 
COMPS,ioos:station:USF.COMPS:ARP:1,2011-04-04T05:36:00Z,28.4330,-82.6670,19.32,1111122 
COMPS,ioos:station:USF.COMPS:ARP:1,2011-04-04T05:42:00Z,28.4330,-82.6670,19.3,1111122 
COMPS,ioos:station:USF.COMPS:ARP:1,2011-04-04T05:48:00Z,28.4330,-82.6670,19.29,1111122 
COMPS,ioos:station:USF.COMPS:ARP:1,2011-04-04T05:54:00Z,28.4330,-82.6670,19.2,1111122 
COMPS,ioos:station:USF.COMPS:ARP:1,2011-04-04T08:00:00Z,28.4330,-82.6670,18.54,1111122 
COMPS,ioos:station:USF.COMPS:ARP:1,2011-04-04T08:06:00Z,28.4330,-82.6670,18.53,1111122 